Weather History for Pocatello, ID

Change the Weather History Date:

Friday, April 5, 2013

  Actual Average Record
Temperature  
Mean Temperature 51 °F 43 °F  
Max Temperature 59 °F 55 °F 78 °F (1959)
Min Temperature 42 °F 31 °F 20 °F (1994)
Degree Days  
Heating Degree Days 14 22  
Month to date heating degree days 67 111  
Since 1 July heating degree days 5969 6223  
Cooling Degree Days 0 0  
Month to date cooling degree days 0 0  
Year to date cooling degree days 0 0  
Growing Degree Days 2 (Base 50)    
Moisture  
Dew Point 35 °F    
Average Humidity 61    
Maximum Humidity 93    
Minimum Humidity 28    
Precipitation  
Precipitation 0.04 in 0.03 in 0.50 in (1953)
Month to date precipitation 0.04 0.17  
Year to date precipitation 1.84 3.39  
Snow  
Snow 0.00 in - - ()
Month to date snowfall 0.0  
Since 1 July snowfall 34.7  
Snow Depth 0.00 in    
Sea Level Pressure  
Sea Level Pressure 29.89 in    
Wind  
Wind Speed 19 mph (SW)    
Max Wind Speed 35 mph    
Max Gust Speed 43 mph    
Visibility 10 miles    
Events Rain    
T = Trace of Precipitation, MM = Missing Value Source: NWS Daily Summary

Daily Weather History Graph

Daily Weather History Graph

Search for Another Location

Airport:

Trip Planner

Search our weather history database for the weather conditions in past years. The results will help you decide how hot, cold, wet, or windy it might be!

Date:

Astronomy

Apr. 05, 2013 Rise Set
Actual Time 7:04 AM MDT 8:01 PM MDT
Civil Twilight 6:36 AM MDT 8:30 PM MDT
Nautical Twilight 6:01 AM MDT 9:04 PM MDT
Astronomical Twilight 5:25 AM MDT 9:40 PM MDT
Moon 4:21 AM MDT (4/5) 3:23 PM MDT (4/5)
Length of Visible Light 13h 54m
Length of Day
12h 56m
Waning Crescent, 23% of the Moon is Illuminated
Apr 5
Waning Crescent
Apr 10
New
Apr 18
First Quarter
Apr 25
Full
May 2
Last Quarter

Hourly Weather History & Observations

Time (MDT) Temp. Windchill Dew Point Humidity Pressure Visibility Wind Dir Wind Speed Gust Speed Precip Events Conditions
12:53 AM 50.0 °F - 39.9 °F 68% 29.83 in 10.0 mi SSW 8.1 mph - N/A   Overcast
1:53 AM 52.0 °F - 42.1 °F 69% 29.85 in 10.0 mi SSW 9.2 mph - 0.00 in Rain Light Rain
2:53 AM 46.9 °F - 44.1 °F 90% 29.87 in 10.0 mi SSW 10.4 mph - 0.03 in Rain Light Rain
3:53 AM 48.0 °F - 42.1 °F 80% 29.82 in 10.0 mi South 16.1 mph - 0.00 in Rain Light Rain
4:53 AM 48.9 °F - 39.9 °F 71% 29.81 in 10.0 mi South 12.7 mph - 0.01 in   Overcast
5:53 AM 48.9 °F - 39.9 °F 71% 29.81 in 10.0 mi SSW 17.3 mph 23.0 mph N/A   Mostly Cloudy
6:53 AM 48.0 °F - 39.9 °F 74% 29.83 in 10.0 mi SSW 15.0 mph - 0.00 in Rain Light Rain
7:53 AM 46.9 °F - 41.0 °F 80% 29.86 in 10.0 mi SW 18.4 mph 23.0 mph 0.00 in   Overcast
8:53 AM 48.0 °F - 39.9 °F 74% 29.88 in 10.0 mi SW 17.3 mph - N/A   Mostly Cloudy
9:53 AM 48.9 °F - 39.9 °F 71% 29.90 in 10.0 mi SW 26.5 mph 34.5 mph N/A   Scattered Clouds
10:53 AM 51.1 °F - 39.0 °F 63% 29.93 in 10.0 mi WSW 28.8 mph 36.8 mph N/A   Scattered Clouds
11:53 AM 53.1 °F - 37.0 °F 55% 29.94 in 10.0 mi WSW 25.3 mph 36.8 mph N/A   Mostly Cloudy
12:53 PM 52.0 °F - 34.0 °F 50% 29.93 in 10.0 mi WSW 28.8 mph 39.1 mph N/A   Mostly Cloudy
1:53 PM 53.1 °F - 32.0 °F 45% 29.91 in 10.0 mi SW 27.6 mph 38.0 mph N/A   Mostly Cloudy
2:53 PM 57.9 °F - 28.9 °F 33% 29.90 in 10.0 mi West 28.8 mph 35.7 mph N/A   Mostly Cloudy
3:53 PM 59.0 °F - 28.0 °F 31% 29.89 in 10.0 mi WSW 29.9 mph 38.0 mph N/A   Mostly Cloudy
4:53 PM 59.0 °F - 27.0 °F 29% 29.88 in 10.0 mi WSW 28.8 mph 38.0 mph N/A   Scattered Clouds
5:53 PM 57.0 °F - 27.0 °F 32% 29.89 in 10.0 mi WSW 26.5 mph 35.7 mph N/A   Scattered Clouds
6:53 PM 55.0 °F - 28.0 °F 35% 29.90 in 10.0 mi WSW 21.9 mph - N/A   Scattered Clouds
7:53 PM 50.0 °F - 28.9 °F 44% 29.92 in 10.0 mi WSW 16.1 mph - N/A   Scattered Clouds
8:53 PM 46.9 °F - 28.9 °F 50% 29.95 in 10.0 mi SSW 11.5 mph - N/A   Clear
9:53 PM 48.0 °F - 28.9 °F 48% 29.96 in 10.0 mi SSW 16.1 mph - N/A   Clear
10:53 PM 46.9 °F - 28.9 °F 50% 29.97 in 10.0 mi SSW 12.7 mph - N/A   Clear
11:53 PM 45.0 °F 39.3 °F 28.9 °F 53% 29.96 in 10.0 mi SSW 11.5 mph - N/A   Clear